GW0187 Weather Reports


Display with metric or nautical units.
time (UTC)temp
F
wind
direction
speed
MPH
gust
MPH
rain 1hr
in
rain 24hr
in
rain mn
in
humidity
%
barometer
mb
20260506154554 63 191 1.0 3.0 0.00 0.01 0.00 67 1019.8
20260506153049 63 138 2.0 4.0 0.00 0.01 0.00 67 1019.8
20260506151549 62 130 1.0 3.0 0.00 0.01 0.00 69 1019.9
20260506150047 60 329 0.0 2.0 0.00 0.01 0.00 76 1019.9
20260506144549 56 0 0.0 2.0 0.00 0.01 0.00 81 1019.8
20260506143049 53 0 1.0 4.0 0.00 0.01 0.00 86 1019.8
20260506141606 51 0 0.0 0.0 0.00 0.01 0.00 92 1019.6
20260506140052 49 0 0.0 1.0 0.00 0.01 0.00 93 1019.6
20260506134549 47 0 0.0 1.0 0.00 0.02 0.00 93 1019.5
20260506133105 46 0 0.0 2.0 0.00 0.02 0.00 92 1019.2
20260506131555 45 347 0.0 3.0 0.00 0.02 0.00 92 1019.0
20260506130048 44 0 0.0 0.0 0.00 0.02 0.00 92 1019.0
20260506124548 44 0 0.0 0.0 0.00 0.02 0.00 91 1018.7
20260506123052 45 0 0.0 0.0 0.00 0.02 0.00 91 1018.6
20260506121555 45 0 0.0 0.0 0.00 0.02 0.00 91 1018.5
20260506120116 45 0 0.0 0.0 0.00 0.02 0.00 91 1018.5
20260506114550 46 0 0.0 0.0 0.00 0.02 0.00 91 1018.4
20260506113048 46 0 0.0 0.0 0.00 0.02 0.00 90 1018.3
20260506111549 46 0 0.0 0.0 0.00 0.02 0.00 91 1018.2
20260506110048 46 0 0.0 0.0 0.00 0.02 0.00 90 1018.3
20260506104548 47 0 0.0 0.0 0.00 0.02 0.00 90 1018.1
20260506103053 47 0 0.0 0.0 0.00 0.02 0.00 90 1018.1
20260506101552 47 0 0.0 0.0 0.00 0.02 0.00 90 1017.8
20260506100046 47 0 0.0 0.0 0.00 0.02 0.00 89 1017.9
20260506094549 47 0 0.0 0.0 0.00 0.02 0.00 89 1017.7
20260506093049 48 0 0.0 0.0 0.00 0.02 0.00 89 1017.6
20260506091547 48 0 0.0 0.0 0.00 0.02 0.00 89 1017.5
20260506090048 48 0 0.0 0.0 0.00 0.02 0.00 90 1017.8
20260506084548 48 0 0.0 0.0 0.00 0.02 0.00 91 1018.0
20260506083053 47 0 0.0 0.0 0.00 0.02 0.00 91 1018.0
20260506081554 46 0 0.0 0.0 0.00 0.02 0.00 90 1018.0
20260506073057 46 0 0.0 0.0 0.00 0.02 0.00 89 1017.8
20260506071554 46 0 0.0 0.0 0.00 0.02 0.00 88 1017.6
20260506070114 47 0 0.0 0.0 0.00 0.02 0.00 88 1017.3
20260506061549 48 0 0.0 0.0 0.00 0.02 0.02 88 1017.0
20260506044559 51 0 0.0 0.0 0.00 0.02 0.02 83 1016.3
20260506043053 51 0 0.0 0.0 0.00 0.02 0.02 84 1016.2
20260506041556 52 0 0.0 0.0 0.00 0.02 0.02 82 1015.8
20260506040100 52 0 0.0 0.0 0.00 0.02 0.02 81 1015.7
20260506034554 53 0 0.0 0.0 0.00 0.02 0.02 78 1015.5
20260506033049 54 0 0.0 0.0 0.00 0.02 0.02 77 1015.3
20260506031600 56 0 0.0 0.0 0.00 0.02 0.02 75 1015.1
20260506030111 57 0 0.0 0.0 0.00 0.02 0.02 72 1015.0
20260506024554 59 0 0.0 0.0 0.00 0.02 0.02 69 1014.9
20260506023049 61 0 0.0 2.0 0.00 0.02 0.02 65 1014.7
20260506021550 62 327 2.0 4.0 0.00 0.02 0.02 62 1014.6
20260506020052 63 348 1.0 4.0 0.00 0.02 0.02 61 1014.4
20260506014600 64 349 0.0 3.0 0.00 0.02 0.02 60 1014.3
20260506013054 64 335 1.0 5.0 0.00 0.02 0.02 60 1014.3
20260506011558 64 321 2.0 5.0 0.00 0.02 0.02 58 1014.5
20260506010058 64 331 2.0 8.0 0.00 0.02 0.02 58 1014.5
20260506004625 64 14 3.0 6.0 0.00 0.02 0.02 58 1014.5
20260506003048 64 311 0.0 5.0 0.00 0.02 0.02 57 1014.5
20260506001555 64 335 2.0 8.0 0.00 0.02 0.02 59 1014.5
20260506000050 64 331 2.0 7.0 0.00 0.02 0.02 58 1014.5
20260505234612 64 337 2.0 5.0 0.00 0.02 0.02 57 1014.4
20260505233051 64 280 1.0 8.0 0.00 0.02 0.02 56 1014.5
20260505231559 64 310 2.0 5.0 0.00 0.02 0.02 57 1014.4
20260505230052 64 266 2.0 6.0 0.00 0.02 0.02 56 1014.4
20260505224549 64 285 1.0 4.0 0.00 0.02 0.02 56 1014.4
20260505223101 65 253 2.0 5.0 0.00 0.02 0.02 55 1014.5
20260505221607 65 237 0.0 5.0 0.00 0.02 0.02 54 1014.6
20260505220133 65 209 1.0 5.0 0.00 0.02 0.02 54 1014.5
20260505214609 64 292 3.0 9.0 0.00 0.02 0.02 56 1014.6
20260505213049 64 272 2.0 10.0 0.00 0.02 0.02 55 1014.6
20260505211559 64 298 2.0 8.0 0.00 0.02 0.02 55 1014.6
20260505210051 64 225 2.0 6.0 0.00 0.02 0.02 57 1014.5
20260505204550 64 242 3.0 9.0 0.00 0.02 0.02 55 1014.4
20260505203054 65 285 2.0 9.0 0.00 0.02 0.02 54 1014.4
20260505201601 65 206 3.0 9.0 0.00 0.02 0.02 54 1014.4
20260505200100 65 165 3.0 9.0 0.00 0.02 0.02 57 1014.5
20260505194601 64 206 2.0 9.0 0.00 0.02 0.02 60 1014.6
20260505193049 64 283 2.0 10.0 0.00 0.02 0.02 62 1014.8
20260505191553 63 229 2.0 9.0 0.00 0.02 0.02 67 1014.8
20260505190051 63 238 4.0 9.0 0.00 0.02 0.02 64 1014.8
20260505184549 62 312 3.0 10.0 0.00 0.02 0.02 69 1014.7
20260505183051 60 210 4.0 10.0 0.00 0.02 0.02 73 1014.9
20260505181549 59 209 4.0 10.0 0.00 0.02 0.02 76 1015.0
20260505180051 59 195 3.0 8.0 0.00 0.02 0.02 80 1014.9
20260505174550 57 252 2.0 5.0 0.01 0.03 0.02 83 1014.8
20260505173051 57 142 0.0 3.0 0.01 0.03 0.02 87 1014.5
20260505171549 56 134 2.0 5.0 0.01 0.03 0.02 89 1014.5
20260505170049 54 0 0.0 0.0 0.01 0.03 0.02 92 1014.5
20260505164551 54 205 0.0 2.0 0.00 0.02 0.01 92 1014.5
20260505163052 53 205 1.0 4.0 0.00 0.02 0.01 92 1014.3
20260505161556 53 202 0.0 3.0 0.00 0.02 0.01 93 1014.2